Monroe, NC

5:00 PM EDT on May 23, 2018 (GMT -0400)
Monroe

Weather History for KEQY - October, 2013

Change the Weather History Date:

Monday, October 14, 2013

  Actual Average (KCLT) Record (KCLT)
Temperature  
Mean Temperature 64 °F -  
Max Temperature 68 °F 75 °F 87 °F (1940)
Min Temperature 61 °F 51 °F 32 °F (2006)
Degree Days  
Heating Degree Days 2    
Growing Degree Days 14 (Base 50)    
Moisture  
Dew Point 60 °F    
Average Humidity 87    
Maximum Humidity 97    
Minimum Humidity 78    
Precipitation  
Precipitation 0.02 in - - ()
Sea Level Pressure  
Sea Level Pressure 30.21 in    
Wind  
Wind Speed 10 mph (NE)    
Max Wind Speed 13 mph    
Max Gust Speed -    
Visibility 9 miles    
Events Rain    
Averages and records for this station are not official NWS values.
T = Trace of Precipitation, MM = Missing Value Source: NWS Daily Summary

Daily Weather History Graph

Daily Weather History Graph

Search for Another Location

Airport or City:

Astronomy

Oct. 14, 2013 Rise Set
Actual Time 7:27 AM EDT 6:48 PM EDT
Civil Twilight 7:02 AM EDT 7:13 PM EDT
Nautical Twilight 6:32 AM EDT 7:43 PM EDT
Astronomical Twilight 6:03 AM EDT 8:12 PM EDT
Moon 4:08 PM EDT (10/14) 2:52 AM EDT (10/14)
Length of Visible Light 12h 11m
Length of Day
11h 20m
Waxing Gibbous, 79% of the Moon is Illuminated
Oct 14
Waxing Gibbous
Oct 18
Full
Oct 26
Last Quarter
Nov 3
New
Nov 10
First Quarter

Hourly Weather History & Observations

Time (EDT) Temp. Dew Point Humidity Pressure Visibility Wind Dir Wind Speed Gust Speed Precip Events Conditions
12:53 AM 64.0 °F 61.0 °F 90% 30.22 in 10.0 mi NNE 9.2 mph - N/A   Overcast
1:32 AM 64.4 °F 60.8 °F 88% 30.19 in 10.0 mi NNE 11.5 mph - N/A   Overcast
1:53 AM 64.0 °F 60.1 °F 87% 30.20 in 10.0 mi NE 11.5 mph - N/A   Overcast
2:37 AM 62.6 °F 60.8 °F 94% 30.18 in 5.0 mi NNE 9.2 mph - 0.00 in Rain Light Rain
2:53 AM 63.0 °F 61.0 °F 93% 30.20 in 10.0 mi NNE 10.4 mph - 0.00 in   Overcast
3:05 AM 62.6 °F 60.8 °F 94% 30.18 in 8.0 mi NNE 9.2 mph - N/A   Overcast
3:30 AM 62.6 °F 60.8 °F 94% 30.18 in 10.0 mi NNE 10.4 mph - 0.00 in   Overcast
3:53 AM 62.1 °F 60.1 °F 93% 30.20 in 6.0 mi NNE 9.2 mph - 0.00 in Rain Light Rain
4:04 AM 62.6 °F 60.8 °F 94% 30.18 in 4.0 mi NNE 8.1 mph - 0.00 in Rain Light Rain
4:53 AM 62.1 °F 60.1 °F 93% 30.20 in 5.0 mi NNE 11.5 mph - 0.02 in Rain Light Rain
5:53 AM 62.1 °F 60.1 °F 93% 30.20 in 10.0 mi NNE 10.4 mph - 0.00 in   Overcast
6:53 AM 61.0 °F 60.1 °F 97% 30.21 in 10.0 mi NNE 10.4 mph - N/A   Overcast
7:53 AM 62.1 °F 60.1 °F 93% 30.22 in 10.0 mi NNE 11.5 mph - N/A   Overcast
8:53 AM 62.1 °F 60.1 °F 93% 30.24 in 10.0 mi NNE 9.2 mph - N/A   Overcast
9:53 AM 62.1 °F 60.1 °F 93% 30.25 in 10.0 mi NNE 11.5 mph - N/A   Overcast
10:53 AM 63.0 °F 60.1 °F 90% 30.25 in 10.0 mi NE 10.4 mph - N/A   Overcast
11:53 AM 64.0 °F 61.0 °F 90% 30.24 in 10.0 mi NNE 8.1 mph - 0.00 in   Overcast
12:53 PM 64.9 °F 62.1 °F 90% 30.22 in 10.0 mi NE 9.2 mph - N/A   Overcast
1:53 PM 66.0 °F 62.1 °F 87% 30.20 in 10.0 mi NNE 12.7 mph - N/A   Overcast
2:33 PM 66.2 °F 60.8 °F 83% 30.17 in 10.0 mi NE 11.5 mph - N/A   Overcast
2:53 PM 66.9 °F 61.0 °F 81% 30.19 in 10.0 mi ENE 11.5 mph - N/A   Overcast
3:53 PM 66.9 °F 60.1 °F 79% 30.18 in 10.0 mi NE 11.5 mph - N/A   Overcast
4:53 PM 66.9 °F 60.1 °F 79% 30.19 in 10.0 mi NE 12.7 mph - N/A   Overcast
5:53 PM 66.0 °F 59.0 °F 78% 30.19 in 10.0 mi ENE 8.1 mph - N/A   Overcast
6:53 PM 64.9 °F 59.0 °F 81% 30.19 in 10.0 mi NE 8.1 mph - N/A   Overcast
7:53 PM 64.0 °F 59.0 °F 84% 30.21 in 10.0 mi NE 6.9 mph - N/A   Overcast
8:53 PM 64.0 °F 59.0 °F 84% 30.22 in 10.0 mi ENE 6.9 mph - N/A   Overcast
9:53 PM 63.0 °F 57.9 °F 84% 30.23 in 10.0 mi ENE 10.4 mph - N/A   Overcast
10:07 PM 62.6 °F 57.2 °F 82% 30.21 in 10.0 mi NE 9.2 mph - N/A   Overcast
10:40 PM 62.6 °F 57.2 °F 82% 30.21 in 10.0 mi NE 9.2 mph - N/A   Overcast
10:53 PM 63.0 °F 57.0 °F 81% 30.23 in 10.0 mi NE 10.4 mph - N/A   Overcast
11:16 PM 62.6 °F 57.2 °F 82% 30.21 in 10.0 mi NNE 10.4 mph - N/A   Overcast
11:30 PM 62.6 °F 57.2 °F 82% 30.21 in 10.0 mi NE 10.4 mph - N/A   Overcast
11:53 PM 62.1 °F 57.0 °F 84% 30.22 in 10.0 mi NE 5.8 mph - N/A   Overcast